Regional Weather Roundup
Issued by NWS

Home | Current Version | Previous Version | Graphics & Text | Print | Product List | Glossary On
Versions: 1 2 3 4 5 6 7 8 9 10 11 12 13 14 15 16 17 18 19 20 21 22 23 24 25 26 27 28 29 30 31 32 33 34 35 36 37 38 39 40 41 42 43 44 45 46 47 48 49 50
000
ASUS45 KCYS 240110
RWRWY

WYOMING REGIONAL WEATHER ROUNDUP
NATIONAL WEATHER SERVICE CHEYENNE WY
600 PM MST THU FEB 23 2017

NOTE:  "FAIR" INDICATES FEW OR NO CLOUDS BELOW 12,000 FEET
WITH NO SIGNIFICANT WEATHER AND/OR OBSTRUCTIONS TO VISIBILITY.

WYZ001-240200-
YELLOWSTONE NATIONAL PARK

CITY           SKY/WX    TMP DP  RH WIND       PRES   REMARKS
LK YELLOWSTONE   N/A     15   5  64 CALM      29.73R
W YELLOWSTONE  NOT AVBL

$$
WYZ002>013-054>058-071-098>099-240200-
NORTHERN WYOMING

CITY           SKY/WX    TMP DP  RH WIND       PRES   REMARKS
JACKSON        CLOUDY    23  18  80 N12G23    29.69R WCI  12
CODY           LGT SNOW  21  18  88 N10       29.87R FOG     WCI  10
GREYBULL       CLOUDY    29  19  66 NW16      29.83R WCI  17
WORLAND        LGT SNOW  26  22  84 NW13      29.85R FOG     WCI  15
SHERIDAN       CLOUDY    27  21  78 SE9       29.93R WCI  18
BUFFALO        LGT SNOW  24  19  81 NE12      29.89R WCI  13
GILLETTE       CLOUDY    24  21  88 NE15      29.90R WCI  11
HULETT         CLOUDY    27  21  80 MISG      29.93R
NEWCASTLE      FAIR      27  27 100 CALM      29.88R

$$
WYZ014>020-022>026-101>103-240200-
CENTRAL WYOMING

CITY           SKY/WX    TMP DP  RH WIND       PRES   REMARKS
BIG PINEY      CLOUDY    20  17  88 SW10      29.70R WCI   9
PINEDALE       CLOUDY    21  16  79 S5        29.70R WCI  15
DUBOIS         LGT SNOW  18  16  93 SE8       29.71R VSB 1   WCI   7
LANDER         SNOW      22  20  92 N8        29.80R VSB 1/2 WCI  12
RIVERTON       LGT SNOW  21  19  92 N15       29.80R FOG     WCI   8
CASPER         LGT SNOW  18  16  92 E15       29.81R FOG     WCI   4
DOUGLAS        LGT SNOW  19  17  92 CALM      29.86R FOG

$$
WYZ021-027>030-104>119-240200-
SOUTHERN WYOMING

CITY           SKY/WX    TMP DP  RH WIND       PRES   REMARKS
EVANSTON       CLOUDY    18  14  84 SW16      29.72R WCI   3
FORT BRIDGER   FLURRIES  21  19  94 W16       29.75R WCI   7
ROCK SPRINGS   CLOUDY    20  12  71 N13G24    29.69R WCI   7
DIXON            N/A     23  15  71 S13       29.69R WCI  11
RAWLINS        CLOUDY    16  11  80 E24       29.65S HAZE    WCI  -2
SARATOGA       FAIR      18  18 100 N5        29.66R WCI  11
LARAMIE        LGT SNOW  13   7  77 NE12      29.68R WCI  -1
CHEYENNE       LGT SNOW  15  11  83 N17G25    29.75R FOG     WCI  -1
TORRINGTON     SNOW      21  19  92 N8        29.86R VSB 1/2 WCI  11
PINE BLUFFS    CLOUDY    19  18  93 N16       29.78R WCI   5

$$



USA.gov is the U.S. government's official web portal to all federal, state and local government web resources and services.